Latest Coastal Weather Observations for Cape Flattery

IDQ60701

Issued at 4:15 pm EST Thursday 23 October 2014 (issued every 10 minutes, with the page automatically refreshed every 10 minutes)

About coastal observations | Map of coastal stations | Coastal observations for QLD | Marine services | Other Formats
Station Details ID: 031213 Name: CAPE FLATTERY Lat: -14.97 Lon: 145.31 Height: 18.5 m
Data from the previous 72 hours. | See also: Recent months at Cape Flattery
Date/Time
EST
Temp

°C
Wind Pressure Rain
since 9am
mm
Weather Cloud Vis
km
Sea
Height
m
Swell
Dir
 
Speed
knots
Gust
knots
hPa Trend Height
m
Period
s
Dir
23/04:00pm 26.7 SSE 21 27 1014.2 - 0.0 - - - - - - -
23/03:30pm 27.3 SSE 22 28 1014.1 - 0.0 - - - - - - -
23/03:00pm 27.7 SE 22 29 1014.2 - 0.0 - - - - - - -
23/02:30pm 27.9 SE 22 27 1014.2 - 0.0 - - - - - - -
23/02:00pm 28.3 SSE 23 29 1014.3 - 0.0 - - - - - - -
23/01:30pm 28.3 SE 22 29 1014.7 - 0.0 - - - - - - -
23/01:00pm 29.0 SE 21 27 1015.1 - 0.0 - - - - - - -
23/12:30pm 28.4 SE 21 27 1015.5 - 0.0 - - - - - - -
23/12:00pm 28.3 SE 21 27 1016.1 - 0.0 - - - - - - -
23/11:30am 28.9 SE 20 26 1016.4 - 0.0 - - - - - - -
23/11:00am 28.0 SE 20 27 1016.7 - 0.0 - - - - - - -
23/10:43am 28.1 SE 19 29 1016.8 - 0.0 - - - - - - -
23/10:30am 27.9 SE 20 27 1016.8 - 0.0 - - - - - - -
23/10:00am 28.5 SE 19 26 1016.9 - 0.0 - - - - - - -
23/09:30am 27.6 SE 21 28 1016.9 - 0.0 - - - - - - -
23/09:00am 27.4 SE 19 25 1017.0 - 0.0 - - - - - - -
23/08:30am 26.5 SE 22 28 1017.0 - 0.0 - - - - - - -
23/08:11am 26.3 SE 20 30 1016.9 - 0.0 - - - - - - -
23/08:00am 25.9 SE 21 30 1016.9 - 0.0 - - - - - - -
23/07:38am 25.7 SE 20 31 1016.7 - 0.0 - - - - - - -
23/07:30am 25.5 SE 20 29 1016.6 - 0.0 - - - - - - -
23/07:21am 25.4 SE 19 29 1016.5 - 0.0 - - - - - - -
23/07:00am 25.0 SE 19 27 1016.3 - 0.0 - - - - - - -
23/06:30am 24.3 SE 19 26 1016.1 - 0.0 - - - - - - -
23/06:00am 23.9 SE 17 25 1016.0 - 0.0 - - - - - - -
23/05:30am 23.7 SE 18 25 1015.7 - 0.0 - - - - - - -
23/05:00am 23.7 SE 17 24 1015.5 - 0.0 - - - - - - -
23/04:30am 23.7 SE 16 24 1015.2 - 0.0 - - - - - - -
23/04:00am 23.7 SE 18 24 1015.1 - 0.0 - - - - - - -
23/03:30am 23.7 SE 18 25 1014.9 - 0.0 - - - - - - -
23/03:00am 23.8 SE 19 24 1015.0 - 0.0 - - - - - - -
23/02:30am 23.8 SE 21 27 1015.2 - 0.0 - - - - - - -
23/02:00am 23.8 SE 20 27 1015.5 - 0.0 - - - - - - -
23/01:30am 23.9 SE 19 27 1015.8 - 0.0 - - - - - - -
23/01:00am 23.8 SE 19 26 1016.3 - 0.0 - - - - - - -
23/12:30am 23.8 SE 17 23 1016.7 - 0.0 - - - - - - -
23/12:00am 24.0 SE 18 23 1017.3 - 0.0 - - - - - - -
 
Date/Time
EST
Temp

°C
Wind Pressure Rain
since 9am
mm
Weather Cloud Vis
km
Sea
Height
m
Swell
Dir
 
Speed
knots
Gust
knots
hPa Trend Height
m
Period
s
Dir
22/11:30pm 24.2 SE 18 26 1017.6 - 0.0 - - - - - - -
22/11:00pm 24.2 SE 18 25 1017.9 - 0.0 - - - - - - -
22/10:42pm 24.1 SE 16 26 1018.0 - 0.0 - - - - - - -
22/10:30pm 24.3 SE 16 23 1018.0 - 0.0 - - - - - - -
22/10:00pm 24.3 SE 18 25 1018.0 - 0.0 - - - - - - -
22/09:30pm 24.3 SE 17 26 1017.9 - 0.0 - - - - - - -
22/09:00pm 24.3 SE 18 26 1017.6 - 0.0 - - - - - - -
22/08:32pm 24.4 SE 19 29 1017.4 - 0.0 - - - - - - -
22/08:30pm 24.4 SE 20 29 1017.4 - 0.0 - - - - - - -
22/08:23pm 24.5 SE 19 29 1017.4 - 0.0 - - - - - - -
22/08:00pm 24.3 SE 19 25 1017.0 - 0.0 - - - - - - -
22/07:30pm 24.4 SE 17 25 1016.7 - 0.0 - - - - - - -
22/07:00pm 24.5 SE 19 26 1016.3 - 0.0 - - - - - - -
22/06:30pm 24.5 SE 19 29 1015.9 - 0.0 - - - - - - -
22/06:29pm 24.6 SE 19 29 1015.9 - 0.0 - - - - - - -
22/06:00pm 24.8 SE 18 25 1015.8 - 0.0 - - - - - - -
22/05:53pm 25.0 SE 19 29 1015.8 - 0.0 - - - - - - -
22/05:30pm 25.4 SE 20 26 1015.7 - 0.0 - - - - - - -
22/05:00pm 26.0 SE 19 25 1015.5 - 0.0 - - - - - - -
22/04:30pm 26.9 SE 18 26 1015.3 - 0.0 - - - - - - -
22/04:00pm 27.4 SE 20 26 1015.2 - 0.0 - - - - - - -
22/03:30pm 27.2 SE 20 26 1015.1 - 0.0 - - - - - - -
22/03:00pm 27.9 SE 20 28 1015.3 - 0.0 - - - - - - -
22/02:30pm 28.1 SE 21 28 1015.4 - 0.0 - - - - - - -
22/02:00pm 28.3 SE 22 30 1015.5 - 0.0 - - - - - - -
22/01:30pm 28.0 SE 22 28 1015.8 - 0.0 - - - - - - -
22/01:05pm 27.6 SE 21 31 1016.2 - 0.0 - - - - - - -
22/01:00pm 28.4 SE 21 28 1016.2 - 0.0 - - - - - - -
22/12:42pm 28.4 SE 21 31 1016.4 - 0.0 - - - - - - -
22/12:30pm 28.2 SE 23 29 1016.6 - 0.0 - - - - - - -
22/12:00pm 28.2 SE 21 29 1017.0 - 0.0 - - - - - - -
22/11:30am 28.2 SE 23 31 1017.3 - 0.0 - - - - - - -
22/11:00am 27.6 SE 22 29 1017.6 - 0.0 - - - - - - -
22/10:30am 27.4 SE 21 29 1017.8 - 0.0 - - - - - - -
22/10:00am 27.3 SE 21 30 1018.0 - 0.0 - - - - - - -
22/09:30am 26.7 SE 19 27 1018.0 - 0.0 - - - - - - -
22/09:09am 26.7 SE 18 28 1018.1 - 0.0 - - - - - - -
22/09:00am 25.6 SE 18 24 1018.0 - 1.0 - - - - - - -
22/08:30am 26.4 SE 18 24 1017.9 - 1.0 - - - - - - -
22/08:00am 25.1 SE 19 25 1017.4 - 1.0 - - - - - - -
22/07:30am 25.3 SE 15 23 1017.1 - 1.0 - - - - - - -
22/07:00am 24.5 SE 17 23 1016.6 - 1.0 - - - - - - -
22/06:30am 24.2 SE 15 23 1016.3 - 1.0 - - - - - - -
22/06:00am 23.8 SE 16 22 1016.1 - 1.0 - - - - - - -
22/05:30am 23.7 SE 16 22 1015.8 - 1.0 - - - - - - -
22/05:00am 23.6 SE 15 22 1015.5 - 1.0 - - - - - - -
22/04:30am 23.8 SE 17 23 1015.6 - 1.0 - - - - - - -
22/04:00am 23.7 SE 16 24 1015.4 - 1.0 - - - - - - -
22/03:30am 23.7 SE 16 23 1015.3 - 1.0 - - - - - - -
22/03:00am 23.7 SE 16 22 1015.4 - 1.0 - - - - - - -
22/02:30am 23.7 SE 18 25 1015.6 - 1.0 - - - - - - -
22/02:00am 23.4 SE 15 23 1016.0 - 1.0 - - - - - - -
22/01:30am 23.3 SE 18 24 1016.4 - 1.0 - - - - - - -
22/01:00am 22.8 SE 18 24 1016.9 - 1.0 - - - - - - -
22/12:30am 22.8 SE 16 24 1017.4 - 0.4 - - - - - - -
22/12:00am 22.8 SE 21 27 1017.9 - 0.0 - - - - - - -
 
Date/Time
EST
Temp

°C
Wind Pressure Rain
since 9am
mm
Weather Cloud Vis
km
Sea
Height
m
Swell
Dir
 
Speed
knots
Gust
knots
hPa Trend Height
m
Period
s
Dir
21/11:30pm 24.2 ESE 15 22 1018.2 - 0.0 - - - - - - -
21/11:07pm 24.5 SE 16 26 1018.5 - 0.0 - - - - - - -
21/11:00pm 24.4 SE 16 24 1018.6 - 0.0 - - - - - - -
21/10:30pm 24.0 ESE 19 30 1018.7 - 0.0 - - - - - - -
21/10:22pm 24.3 SE 19 30 1018.7 - 0.0 - - - - - - -
21/10:00pm 24.2 SE 17 25 1018.7 - 0.0 - - - - - - -
21/09:30pm 24.4 SE 18 23 1018.4 - 0.0 - - - - - - -
21/09:00pm 24.3 SE 19 29 1018.2 - 0.0 - - - - - - -
21/08:30pm 24.3 SE 17 22 1018.0 - 0.0 - - - - - - -
21/08:00pm 24.4 SE 17 23 1017.9 - 0.0 - - - - - - -
21/07:30pm 24.6 SE 18 25 1017.5 - 0.0 - - - - - - -
21/07:00pm 24.9 SE 19 26 1017.2 - 0.0 - - - - - - -
21/06:30pm 25.0 SE 17 23 1017.0 - 0.0 - - - - - - -
21/06:00pm 25.2 SE 19 25 1016.6 - 0.0 - - - - - - -
21/05:30pm 25.7 SE 19 27 1016.1 - 0.0 - - - - - - -
21/05:00pm 25.9 SE 20 28 1015.9 - 0.0 - - - - - - -
21/04:30pm 26.3 SE 20 28 1015.6 - 0.0 - - - - - - -
21/04:00pm 27.4 SE 21 27 1015.5 - 0.0 - - - - - - -
21/03:30pm 26.8 SE 21 28 1015.7 - 0.0 - - - - - - -
21/03:00pm 27.1 SE 19 28 1015.8 - 0.0 - - - - - - -
21/02:30pm 28.0 SE 22 28 1015.7 - 0.0 - - - - - - -
21/02:00pm 29.2 SE 20 29 1016.0 - 0.0 - - - - - - -
21/01:30pm 28.4 SE 21 27 1016.3 - 0.0 - - - - - - -
21/01:00pm 29.8 SE 19 25 1016.6 - 0.0 - - - - - - -
21/12:30pm 28.6 SE 20 26 1017.0 - 0.0 - - - - - - -
21/12:00pm 28.0 SE 21 27 1017.4 - 0.0 - - - - - - -
21/11:30am 28.5 SE 20 25 1017.8 - 0.0 - - - - - - -
21/11:00am 28.2 SE 20 25 1017.9 - 0.0 - - - - - - -
21/10:30am 28.4 SE 19 25 1018.0 - 0.0 - - - - - - -
21/10:00am 28.3 SE 19 24 1018.1 - 0.0 - - - - - - -
21/09:30am 27.5 SE 19 25 1018.2 - 0.0 - - - - - - -
21/09:00am 26.8 SE 20 27 1018.1 - 0.0 - - - - - - -
21/08:30am 27.0 SE 18 24 1017.7 - 0.0 - - - - - - -
21/08:00am 26.3 SE 19 25 1017.4 - 0.0 - - - - - - -
21/07:30am 25.7 SE 19 25 1017.0 - 0.0 - - - - - - -
21/07:00am 25.0 SE 16 23 1016.6 - 0.0 - - - - - - -
21/06:30am 24.4 SE 17 24 1016.4 - 0.0 - - - - - - -
21/06:00am 24.1 SE 16 26 1016.2 - 0.0 - - - - - - -
21/05:30am 24.0 SE 17 23 1016.0 - 0.0 - - - - - - -
21/05:00am 23.9 SE 16 22 1015.8 - 0.0 - - - - - - -
21/04:30am 24.0 SE 16 22 1015.7 - 0.0 - - - - - - -
21/04:00am 24.0 SE 16 22 1015.6 - 0.0 - - - - - - -
21/03:46am 24.0 SE 15 25 1015.6 - 0.0 - - - - - - -
21/03:30am 24.1 SE 15 20 1015.5 - 0.0 - - - - - - -
21/03:00am 24.0 SE 16 22 1015.5 - 0.0 - - - - - - -
21/02:30am 23.9 SE 15 21 1015.7 - 0.0 - - - - - - -
21/02:00am 24.0 SE 17 23 1016.0 - 0.0 - - - - - - -
21/01:30am 24.0 SE 16 23 1016.2 - 0.0 - - - - - - -
21/01:00am 24.2 SE 17 23 1016.6 - 0.0 - - - - - - -
21/12:30am 24.1 SE 16 23 1016.9 - 0.0 - - - - - - -
21/12:00am 24.2 SE 16 23 1017.3 - 0.0 - - - - - - -
 
Date/Time
EST
Temp

°C
Wind Pressure Rain
since 9am
mm
Weather Cloud Vis
km
Sea
Height
m
Swell
Dir
 
Speed
knots
Gust
knots
hPa Trend Height
m
Period
s
Dir
20/11:30pm 24.3 SE 17 24 1017.4 - 0.0 - - - - - - -
20/11:00pm 24.3 SE 18 27 1017.5 - 0.0 - - - - - - -
20/10:30pm 24.3 SE 18 25 1017.6 - 0.0 - - - - - - -
20/10:00pm 24.5 SE 19 26 1017.8 - 0.0 - - - - - - -
20/09:30pm 24.5 SE 16 23 1017.7 - 0.0 - - - - - - -
20/09:00pm 24.5 SE 16 23 1017.6 - 0.0 - - - - - - -
20/08:30pm 24.5 SE 18 26 1017.3 - 0.0 - - - - - - -
20/08:00pm 24.6 SE 17 24 1016.9 - 0.0 - - - - - - -
20/07:35pm 24.7 SE 17 27 1016.7 - 0.0 - - - - - - -
20/07:30pm 24.6 SE 18 27 1016.7 - 0.0 - - - - - - -
20/07:00pm 24.7 SE 17 24 1016.4 - 0.0 - - - - - - -
20/06:30pm 24.8 SE 18 27 1016.2 - 0.0 - - - - - - -
20/06:29pm 24.8 SE 17 27 1016.1 - 0.0 - - - - - - -
20/06:00pm 25.0 SE 21 28 1015.7 - 0.0 - - - - - - -
20/05:30pm 25.5 SE 21 27 1015.4 - 0.0 - - - - - - -
20/05:00pm 26.3 SE 21 27 1015.1 - 0.0 - - - - - - -
20/04:30pm 26.6 SE 20 27 1015.0 - 0.0 - - - - - - -

Other Formats:

Comma delimited format used in spreadsheet applications
http://www.bom.gov.au/fwo/IDQ60701/IDQ60701.94188.axf

JavaScript Object Notation format (JSON) in row-major order
http://www.bom.gov.au/fwo/IDQ60701/IDQ60701.94188.json